Regional Weather Roundup
Issued by NWS Spokane, WA

Home | Current Version | Previous Version | Text Only | Print | Product List | Glossary On
Versions: 1 2 3 4 5 6 7 8 9 10 11 12 13 14 15 16 17 18 19 20 21 22 23 24 25 26 27 28 29 30 31 32 33 34 35 36 37 38 39 40 41 42 43 44 45 46 47 48 49 50
000
NZUS01 KOTX 201910
RWROTX

Eastern Washington/Northern Idaho Roundup
National Weather Service, Spokane WA
1200 PM PDT FRI APR 20 2018

Note: "fair" indicated few or no clouds below 12,000 feet with no
significant weather and/or obstructions to visibility.

...Northeast Washington and Northern Idaho Panhandle...

CITY           SKY/WX    TMP DP  RH WIND       PRES   REMARKS
Spokane Intl   PTSUNNY   56  32  40 SW12      30.20F
Spokane Downto MOSUNNY   59  34  39 SW9       30.20F
Coeur d Alene  PTSUNNY   58  34  40 SW6       30.21S
Deer Park      MOSUNNY   56  35  45 S9G18     30.20F
Bonners Ferry  FAIR      55  32  41 SE3       30.16F

...Southeast Washington and southern Idaho Panhandle...

CITY           SKY/WX    TMP DP  RH WIND       PRES   REMARKS
Walla Walla    SUNNY     61  35  37 S8        30.21F
Pullman/Moscow SUNNY     57  37  47 SW5       30.22F
Lewiston       SUNNY     61  36  39 CALM      30.20F
Lowell           N/A     63  35  35 CALM      30.18F
Grangeville    FAIR      52  34  50 N7        30.20F

...Columbia Basin...

CITY           SKY/WX    TMP DP  RH WIND       PRES   REMARKS
Ephrata        SUNNY     60  31  33 SE6       30.18F
Moses Lake     SUNNY     60  31  33 VRB3      30.20F
Pasco          SUNNY     64  37  36 SW8       30.20F
Richland       CLEAR     65  37  36 E3        30.20F
Hermiston      SUNNY     65  32  29 SW8       30.20F
Pendleton      SUNNY     62  30  29 NW9       30.20F

...East Slopes Cascades...

CITY           SKY/WX    TMP DP  RH WIND       PRES   REMARKS
The Dalles     SUNNY     64  37  36 CALM      30.20F
Yakima         SUNNY     64  31  28 S7        30.19F
Ellensburg     SUNNY     63  33  32 VRB3      30.17F
Wenatchee      SUNNY     59  30  33 S5        30.17F
Winthrop       FAIR      59  23  25 SE3       30.15F
Omak           SUNNY     59  35  40 VRB3      30.17F
Sunnyside      CLEAR     62  31  32 CALM      30.19F

...Southern British Columbia...

CITY           SKY/WX    TMP DP  RH WIND       PRES   REMARKS
Penticton      PTSUNNY   55  36  47 N8        30.15F
Castlegar      PTSUNNY   59  32  36 S6        30.15F
Cranbrook      PTSUNNY   55  28  35 E10       30.12F
Osoyoos          N/A     61  30  31 NW2         N/A
Creston          N/A     55  39  54 SW3         N/A

...Western Montana...

CITY           SKY/WX    TMP DP  RH WIND       PRES   REMARKS
Kalispell      CLEAR     56  28  34 S9        30.16F
Missoula       SUNNY     57  27  31 CALM      30.16F

...Neighboring Cities...

CITY           SKY/WX    TMP DP  RH WIND       PRES   REMARKS
Seattle        PTSUNNY   57  36  45 S9        30.23F
Portland       PTSUNNY   59  40  49 N3        30.25F
Boise          SUNNY     63  31  30 NW22G31   30.11F
Great Falls    SUNNY     60  18  19 VRB6G18   30.10F
Calgary        PTSUNNY   54  19  26 S17       30.04F



USA.gov is the U.S. government's official web portal to all federal, state and local government web resources and services.